This demonstration page uses our WeatherBlox Daily Observations layout. Learn more.

Left ArrowRight Arrow

39.29038, -76.61219

Hourly Observations for April 1, 2022

Temp ( °F °C ) Dew Point ( °F °C ) Humidity (%) Winds ( mph kmh ) Pressure ( in mb ) Visibility ( mi km ) Precip ( " mm )
12:36 am 00:36 Mostly Cloudy 64 17.8 58 14.4 81 81 WNW 18 30 29.49 999 10 16 0.00 0.00
12:54 am 00:54 Cloudy with Light Rain 62 16.7 57 13.9 84 84 WNW 13 20 29.50 999 10 16 0.00 0.00
1:54 am 01:54 Mostly Cloudy 60 15.6 54 12.2 80 80 WNW 9 15 29.49 999 10 16 0.00 0.00
2:54 am 02:54 Mostly Cloudy 57 13.9 54 12.2 90 90 WNW 5 7 29.53 1000 10 16 0.06 1.52
3:54 am 03:54 Mostly Cloudy 56 13.3 50 10 81 81 WNW 10 17 29.57 1001 10 16 0.05 1.27
4:54 am 04:54 Cloudy with Light Rain 53 11.7 45 7.2 74 74 W 12 19 29.60 1002 9 14 0.00 0.00
5:54 am 05:54 Cloudy 51 10.6 40 4.4 66 66 WNW 9 15 29.61 1003 10 16 0.00 0.00
6:54 am 06:54 Cloudy 51 10.6 37 2.8 59 59 WNW 12 19 29.62 1003 10 16 0.00 0.00
7:54 am 07:54 Cloudy 50 10 34 1.1 54 54 W 15 24 29.66 1004 10 16 0.00 0.00
8:54 am 08:54 Mostly Cloudy 50 10 34 1.1 54 54 W 12 19 29.68 1005 10 16 0.00 0.00
9:54 am 09:54 Mostly Cloudy 52 11.1 33 0.6 49 49 WNW 17 28 29.71 1006 10 16 0.00 0.00
10:54 am 10:54 Partly Cloudy 56 13.3 33 0.6 42 42 W 20 31 29.72 1006 10 16 0.00 0.00
11:54 am 11:54 Cloudy 53 11.7 30 -1.1 41 41 W 17 28 29.72 1007 10 16 0.00 0.00
12:54 pm 12:54 Cloudy with Light Rain 51 10.6 32 0 48 48 W 26 43 29.74 1007 8 13 0.00 0.00
1:54 pm 13:54 Mostly Cloudy 56 13.3 30 -1.1 37 37 W 20 31 29.75 1007 10 16 0.00 0.00
2:54 pm 14:54 Partly Cloudy 55 12.8 29 -1.7 37 37 W 20 31 29.76 1008 10 16 0.00 0.00
3:54 pm 15:54 Mostly Cloudy 50 10 30 -1.1 46 46 WNW 22 35 29.81 1009 10 16 0.00 0.00
4:54 pm 16:54 Partly Cloudy 52 11.1 30 -1.1 43 43 WNW 21 33 29.83 1010 10 16 0.00 0.00
5:54 pm 17:54 Partly Cloudy 51 10.6 25 -3.9 36 36 WNW 22 35 29.86 1011 10 16 0.00 0.00
6:54 pm 18:54 Partly Cloudy 49 9.4 26 -3.3 41 41 WNW 23 37 29.91 1013 10 16 0.00 0.00
7:54 pm 19:54 Partly Cloudy 46 7.8 26 -3.3 46 46 W 17 28 29.93 1014 10 16 0.00 0.00
8:54 pm 20:54 Partly Cloudy 46 7.8 27 -2.8 47 47 W 17 28 29.98 1015 10 16 0.00 0.00
9:54 pm 21:54 Partly Cloudy 45 7.2 27 -2.8 49 49 W 12 19 30.01 1016 10 16 0.00 0.00
10:54 pm 22:54 Mostly Cloudy 44 6.7 29 -1.7 55 55 W 13 20 30.04 1017 10 16 0.00 0.00
11:54 pm 23:54 Mostly Cloudy 44 6.7 27 -2.8 51 51 WNW 12 19 30.06 1018 10 16 0.00 0.00

Powered by AerisWeather